TimeEST,TemperatureF,Dew PointF,Humidity,Sea Level PressureIn,VisibilityMPH,Wind Direction,Wind SpeedMPH,Gust SpeedMPH,PrecipitationIn,Events,Conditions,WindDirDegrees,DateUTC
12:15 AM,4.1,-3.5,71,30.05,5.0,Calm,Calm,-,N/A,,Haze,0,2013-01-26 05:15:00
12:35 AM,4.1,-3.1,72,30.04,7.0,Calm,Calm,-,N/A,,Overcast,0,2013-01-26 05:35:00
12:55 AM,4.1,-2.7,73,30.04,5.0,Calm,Calm,-,N/A,,Haze,0,2013-01-26 05:55:00
1:15 AM,4.1,-2.6,74,30.04,7.0,Calm,Calm,-,N/A,Snow,Light Snow,0,2013-01-26 06:15:00
1:35 AM,4.1,-2.6,74,30.04,5.0,Calm,Calm,-,N/A,,Haze,0,2013-01-26 06:35:00
1:55 AM,3.6,-2.2,77,30.04,4.0,Calm,Calm,-,N/A,,Haze,0,2013-01-26 06:55:00
2:15 AM,3.2,-2.2,78,30.04,4.0,Calm,Calm,-,N/A,Snow,Light Snow,0,2013-01-26 07:15:00
2:35 AM,3.2,-2.2,78,30.03,5.0,Calm,Calm,-,N/A,Snow,Light Snow,0,2013-01-26 07:35:00
2:55 AM,2.3,-2.9,79,30.03,5.0,Calm,Calm,-,N/A,Snow,Light Snow,0,2013-01-26 07:55:00
3:15 AM,2.5,-2.2,81,30.03,10.0,Calm,Calm,-,N/A,,Overcast,0,2013-01-26 08:15:00
3:35 AM,2.5,-2.6,79,30.03,10.0,Calm,Calm,-,N/A,,Overcast,0,2013-01-26 08:35:00
3:55 AM,0.9,-4.7,77,30.03,10.0,Calm,Calm,-,N/A,,Mostly Cloudy,0,2013-01-26 08:55:00
4:15 AM,2.1,-3.3,78,30.02,10.0,NNW,3.5,-,N/A,,Overcast,330,2013-01-26 09:15:00
4:35 AM,1.9,-4.5,74,30.02,10.0,NNW,4.6,-,N/A,,Mostly Cloudy,330,2013-01-26 09:35:00
4:55 AM,1.4,-5.3,74,30.03,10.0,NW,5.8,-,N/A,,Scattered Clouds,320,2013-01-26 09:55:00
5:15 AM,1.2,-6.0,72,30.04,10.0,Calm,Calm,-,N/A,,Clear,0,2013-01-26 10:15:00
5:35 AM,0.5,-6.3,73,30.04,10.0,Calm,Calm,-,N/A,,Clear,0,2013-01-26 10:35:00
5:55 AM,-0.2,-6.2,76,30.04,10.0,Calm,Calm,-,N/A,,Clear,0,2013-01-26 10:55:00
6:15 AM,-0.9,-6.3,78,30.04,10.0,NW,3.5,-,N/A,,Clear,310,2013-01-26 11:15:00
6:35 AM,-0.2,-6.5,75,30.05,10.0,NW,4.6,-,N/A,,Clear,310,2013-01-26 11:35:00
6:55 AM,-0.4,-6.7,75,30.05,10.0,WNW,3.5,-,N/A,,Clear,290,2013-01-26 11:55:00
7:15 AM,-1.1,-7.1,76,30.06,10.0,NW,3.5,-,N/A,,Clear,320,2013-01-26 12:15:00
7:35 AM,-0.9,-6.9,76,30.07,10.0,NW,3.5,-,N/A,,Clear,310,2013-01-26 12:35:00
7:55 AM,-2.7,-9.6,73,30.08,10.0,NW,3.5,-,N/A,,Clear,310,2013-01-26 12:55:00
8:15 AM,-0.4,-7.1,73,30.09,10.0,Calm,Calm,-,N/A,,Clear,0,2013-01-26 13:15:00
8:35 AM,-1.1,-8.3,72,30.08,10.0,Calm,Calm,-,N/A,,Clear,0,2013-01-26 13:35:00
8:55 AM,1.0,-6.3,71,30.08,10.0,Calm,Calm,-,N/A,,Clear,0,2013-01-26 13:55:00
9:15 AM,1.9,-6.3,68,30.09,10.0,Calm,Calm,-,N/A,,Clear,0,2013-01-26 14:15:00
9:35 AM,2.8,-6.0,67,30.10,10.0,Calm,Calm,-,N/A,,Clear,0,2013-01-26 14:35:00
9:55 AM,3.0,-6.7,64,30.10,10.0,NNW,6.9,-,N/A,,Clear,330,2013-01-26 14:55:00
10:15 AM,4.1,-6.9,60,30.10,10.0,NNW,4.6,-,N/A,,Clear,330,2013-01-26 15:15:00
10:35 AM,4.6,-6.5,60,30.10,10.0,NNW,10.4,-,N/A,,Clear,330,2013-01-26 15:35:00
10:55 AM,5.2,-8.1,54,30.09,10.0,NW,6.9,-,N/A,,Clear,320,2013-01-26 15:55:00
11:15 AM,5.9,-7.4,54,30.09,10.0,North,3.5,-,N/A,,Clear,10,2013-01-26 16:15:00
11:35 AM,6.8,-8.7,49,30.09,10.0,NW,11.5,17.3,N/A,,Clear,310,2013-01-26 16:35:00
11:55 AM,7.2,-8.7,48,30.08,10.0,WNW,11.5,-,N/A,,Clear,300,2013-01-26 16:55:00
12:15 PM,7.3,-9.2,47,30.08,10.0,WNW,10.4,-,N/A,,Clear,300,2013-01-26 17:15:00
12:35 PM,7.7,-9.2,46,30.08,10.0,NNW,8.1,-,N/A,,Clear,330,2013-01-26 17:35:00
12:55 PM,8.1,-8.5,47,30.08,10.0,WNW,10.4,-,N/A,,Clear,300,2013-01-26 17:55:00
1:15 PM,8.2,-9.0,45,30.08,10.0,West,8.1,16.1,N/A,,Clear,280,2013-01-26 18:15:00
1:35 PM,8.8,-9.0,44,30.08,10.0,NW,9.2,16.1,N/A,,Clear,310,2013-01-26 18:35:00
1:55 PM,9.3,-9.0,43,30.08,10.0,NW,9.2,-,N/A,,Clear,310,2013-01-26 18:55:00
2:15 PM,8.6,-10.5,42,30.09,10.0,WNW,10.4,18.4,N/A,,Scattered Clouds,300,2013-01-26 19:15:00
2:35 PM,8.6,-9.8,43,30.10,10.0,WNW,11.5,17.3,N/A,,Mostly Cloudy,300,2013-01-26 19:35:00
2:55 PM,8.2,-10.1,43,30.10,10.0,NW,9.2,-,N/A,,Mostly Cloudy,310,2013-01-26 19:55:00
3:15 PM,8.2,-8.9,46,30.10,10.0,NW,6.9,-,N/A,,Mostly Cloudy,310,2013-01-26 20:15:00
3:35 PM,8.2,-9.0,45,30.11,10.0,West,6.9,-,N/A,,Overcast,280,2013-01-26 20:35:00
3:55 PM,8.1,-9.4,45,30.11,10.0,WNW,8.1,-,N/A,,Scattered Clouds,290,2013-01-26 20:55:00
4:15 PM,7.5,-9.4,46,30.12,10.0,WNW,12.7,17.3,N/A,,Clear,290,2013-01-26 21:15:00
4:55 PM,7.2,-6.2,55,30.13,10.0,WNW,5.8,-,N/A,,Mostly Cloudy,290,2013-01-26 21:55:00
5:15 PM,6.8,-4.0,61,30.14,5.0,WNW,8.1,-,N/A,Snow,Light Snow,300,2013-01-26 22:15:00
5:35 PM,6.8,-4.0,61,30.14,10.0,WNW,6.9,-,N/A,,Overcast,290,2013-01-26 22:35:00
5:55 PM,6.8,-3.8,62,30.14,10.0,Calm,Calm,-,N/A,,Overcast,0,2013-01-26 22:55:00
6:15 PM,6.8,-3.5,63,30.14,10.0,Calm,Calm,-,N/A,,Overcast,0,2013-01-26 23:15:00
6:35 PM,6.8,-2.2,67,30.14,7.0,SSW,3.5,-,N/A,,Overcast,210,2013-01-26 23:35:00
6:55 PM,6.8,-0.6,72,30.14,5.0,West,3.5,-,N/A,,Haze,280,2013-01-26 23:55:00
7:15 PM,7.2,-0.4,71,30.15,7.0,WNW,6.9,-,N/A,,Overcast,290,2013-01-27 00:15:00
7:55 PM,8.2,1.0,72,30.15,5.0,WNW,8.1,-,N/A,,Haze,290,2013-01-27 00:55:00
8:15 PM,8.2,0.9,72,30.15,5.0,NW,6.9,-,N/A,,Haze,310,2013-01-27 01:15:00
8:35 PM,8.2,1.2,73,30.15,4.0,WNW,9.2,-,N/A,Snow,Light Snow,300,2013-01-27 01:35:00
8:55 PM,8.2,1.0,72,30.16,5.0,NW,9.2,16.1,N/A,,Haze,310,2013-01-27 01:55:00
9:15 PM,8.2,0.9,72,30.17,7.0,WNW,5.8,-,N/A,,Overcast,290,2013-01-27 02:15:00
9:35 PM,8.2,0.5,71,30.17,7.0,NW,9.2,-,N/A,,Overcast,320,2013-01-27 02:35:00
9:55 PM,8.2,0.9,72,30.17,7.0,NW,10.4,16.1,N/A,,Overcast,310,2013-01-27 02:55:00
10:15 PM,8.6,1.2,72,30.18,4.0,WNW,8.1,16.1,N/A,,Haze,300,2013-01-27 03:15:00
10:35 PM,9.0,1.6,72,30.19,4.0,NW,11.5,16.1,N/A,,Haze,310,2013-01-27 03:35:00
10:55 PM,8.6,1.4,73,30.19,5.0,NW,9.2,17.3,N/A,,Haze,320,2013-01-27 03:55:00
11:15 PM,8.8,0.9,70,30.20,10.0,NW,8.1,-,N/A,,Overcast,320,2013-01-27 04:15:00
11:35 PM,8.6,0.1,68,30.20,10.0,NW,8.1,-,N/A,,Overcast,320,2013-01-27 04:35:00
11:55 PM,8.4,-0.2,68,30.21,10.0,WNW,4.6,-,N/A,,Mostly Cloudy,300,2013-01-27 04:55:00